[[{"header":{"parameterUnit":"m.s-1","parameterCategory":2,"la1":30.2991,"la2":30.254,"lo1":-89.0895,"lo2":-89.0444,"dy":0.0017,"dx":0.0017,"nx":28,"ny":28,"refTime":"2023-09-26T09:00:00:Z","depth":"0","parameterNumber":2,"parameterNumberName":"U-component_of_CURRENTS"},"data":[0,0,0,0,0,0,0,0,0,0,0,0,0,0,0,0,0,0,0,0,0,0,0,0,0,0,0,0,0,0,0,0,0,0,0,0,0,0,0,0,0,0,0,0,0,0,0,0,0,0,0,0,0,0,0,0,0,0,-0.2568,-0.2568,0,-0.2545,-0.2545,-0.2545,-0.253,-0.253,-0.253,-0.253,-0.2482,-0.248,-0.2479,0,0,0,0,0,0,0,0,0,0,0,0,0,-0.2606,-0.2605,-0.2569,-0.2568,-0.2568,-0.2546,-0.2545,-0.2545,-0.253,-0.253,-0.253,-0.253,-0.2482,-0.248,-0.2479,0,0,0,0,0,0,0,0,0,0,0,0,0,-0.2585,-0.2605,-0.2569,-0.2559,-0.2559,-0.2546,-0.2545,-0.2544,-0.253,-0.253,-0.253,-0.253,-0.2483,-0.2481,-0.2479,-0.2464,0,0,-0.2472,-0.2471,0,0,0,0,0,0,0,0,-0.2586,-0.2584,-0.2561,-0.256,-0.2559,-0.2542,-0.254,-0.2517,-0.253,-0.2539,-0.253,-0.253,-0.25,-0.2497,-0.249,-0.2462,-0.246,-0.2472,-0.2471,-0.247,-0.2469,0,0,0,0,0,0,0,-0.2588,-0.2585,-0.2558,-0.2561,-0.256,-0.2559,-0.2556,-0.2536,-0.2518,-0.2538,-0.2538,-0.2538,-0.2499,-0.2493,-0.2489,-0.2459,-0.2472,-0.247,-0.2469,-0.2468,-0.2433,-0.2434,0,0,0,0,0,0,-0.2593,-0.2586,-0.2559,-0.2557,-0.2575,-0.2558,-0.2554,-0.2546,-0.2519,-0.2515,-0.2538,-0.2537,-0.2496,-0.2492,-0.2487,-0.251,-0.247,-0.2468,-0.2467,-0.2433,-0.2433,-0.2434,0,0,0,0,0,0,-0.2594,-0.2591,-0.256,-0.2573,-0.2569,-0.2557,-0.2548,-0.2546,-0.254,-0.2519,-0.2514,-0.2535,-0.2496,-0.249,-0.2475,-0.2506,-0.2467,-0.2465,-0.2433,-0.2433,-0.2434,-0.2528,0,0,0,0,0,0,-0.2595,-0.2591,-0.2583,-0.2573,-0.2569,-0.2565,-0.2548,-0.2545,-0.2541,-0.254,-0.2515,-0.251,-0.2495,-0.2478,-0.2473,-0.2503,-0.2464,-0.2432,-0.2433,-0.2433,-0.2524,-0.2531,-0.2537,0,0,0,0,0,-0.2596,-0.2587,-0.2583,-0.258,-0.2559,-0.2566,-0.2564,-0.2555,-0.2541,-0.2547,-0.2525,-0.2511,-0.2478,-0.2477,-0.2471,-0.25,-0.2432,-0.2433,-0.2433,-0.2521,-0.253,-0.2537,0,0,0,0,0,0,-0.2589,-0.2584,-0.258,-0.2566,-0.2573,-0.2564,-0.256,-0.2556,-0.2542,-0.2533,-0.2511,-0.2505,-0.2506,-0.248,-0.2479,-0.2489,-0.2454,-0.2454,-0.2523,-0.2531,-0.2538,-0.2548,-0.2462,0,0,0,0,0,-0.2587,-0.2579,-0.2583,-0.257,-0.2574,-0.2567,-0.2564,-0.2563,-0.2551,-0.2545,-0.253,-0.2509,-0.2503,-0.2498,-0.2483,-0.2483,-0.2481,-0.2496,-0.2503,-0.2509,-0.2511,-0.2535,-0.2545,-0.2436,-0.2436,-0.2436,0,0,-0.2577,-0.2574,-0.2567,-0.2569,-0.2565,-0.2586,-0.2565,-0.2565,-0.2585,-0.254,-0.2548,-0.2529,-0.2506,-0.2515,-0.2513,-0.2499,-0.2541,-0.251,-0.2516,-0.2514,-0.2537,-0.2548,-0.2557,-0.2436,-0.2436,-0.2436,0,0,-0.2568,-0.2556,-0.2556,-0.2573,-0.258,-0.2586,-0.2591,-0.2591,-0.2594,-0.2598,-0.2578,-0.2583,-0.2554,-0.2566,-0.2563,-0.2592,-0.2574,-0.2575,-0.2622,-0.2646,-0.2656,-0.2664,-0.2695,-0.2706,-0.2581,-0.2581,-0.2581,0,-0.2559,-0.2566,-0.2559,-0.2578,-0.2602,-0.2593,-0.2623,-0.2625,-0.2622,-0.2638,-0.261,-0.2611,-0.259,-0.2629,-0.2632,-0.2614,-0.2611,-0.2601,-0.2658,-0.2666,-0.2674,-0.2703,-0.2713,-0.2586,-0.2585,-0.2585,-0.2584,0,-0.256,-0.258,-0.2583,-0.2612,-0.2636,-0.2656,-0.2678,-0.2695,-0.2693,-0.27,-0.2727,-0.2704,-0.2708,-0.2706,-0.2671,-0.2716,-0.2694,-0.2667,-0.2647,-0.2691,-0.2718,-0.2728,-0.2592,-0.2591,-0.2589,-0.2588,0,0,-0.251,-0.2576,-0.2578,-0.2614,-0.2665,-0.268,-0.2731,-0.278,-0.2802,-0.2808,-0.285,-0.2845,-0.2825,-0.2818,-0.2792,-0.2804,-0.2856,-0.2746,-0.2746,-0.2793,-0.2907,-0.2852,-0.2857,-0.2829,-0.2831,-0.2832,-0.2914,0,-0.252,-0.2574,-0.2611,-0.2674,-0.2711,-0.2757,-0.2801,-0.2841,-0.286,-0.289,-0.2903,-0.2908,-0.2871,-0.2859,-0.2878,-0.2844,-0.2879,-0.2836,-0.2841,-0.2842,-0.2802,-0.2866,-0.2546,-0.2587,-0.2922,-0.2924,-0.2925,0,-0.2503,-0.2556,-0.2624,-0.2722,-0.274,-0.2778,-0.2859,-0.2896,-0.2951,-0.2964,-0.3,-0.2983,-0.3014,-0.2958,-0.2987,-0.2951,-0.2938,-0.2923,-0.2925,-0.2845,-0.2804,-0.259,-0.2591,-0.2491,-0.2939,-0.2938,-0.2937,0,-0.2459,-0.2557,-0.2617,-0.2651,-0.2756,-0.2801,-0.285,-0.2913,-0.2947,-0.2999,-0.3021,-0.3058,-0.3059,-0.3064,-0.3037,-0.3,-0.3062,-0.3017,-0.2982,-0.2979,-0.2693,-0.2662,-0.2604,-0.3062,-0.3061,-0.3061,-0.3061,0,-0.2449,-0.2489,-0.2598,-0.2632,-0.2706,-0.2775,-0.2838,-0.2892,-0.2957,-0.2994,-0.3038,-0.3069,-0.3073,-0.3104,-0.3081,-0.3069,-0.3114,-0.3007,-0.3,-0.2718,-0.2689,-0.2576,-0.2605,-0.3064,-0.3063,-0.3063,-0.3062,0,-0.2365,-0.2447,-0.2514,-0.2639,-0.2684,-0.2718,-0.2834,-0.2871,-0.2933,-0.299,-0.3005,-0.3077,-0.3117,-0.3151,-0.3161,-0.3115,-0.3026,-0.3107,-0.2785,-0.2738,-0.258,-0.2626,-0.2657,-0.2606,-0.3064,-0.3064,-0.3063,0,-0.2322,-0.2347,-0.2489,-0.255,-0.2608,-0.2687,-0.2749,-0.2843,-0.2886,-0.2988,-0.3013,-0.3082,-0.3123,-0.3161,-0.3047,-0.3033,-0.3028,-0.277,-0.2649,-0.2547,-0.2593,-0.2649,-0.2607,-0.2313,-0.2306,-0.23,-0.2296,0,-0.2243,-0.2284,-0.2362,-0.2467,-0.2553,-0.2628,-0.272,-0.2754,-0.2853,-0.29,-0.297,-0.3011,-0.3028,-0.2832,-0.2809,-0.2764,-0.2615,-0.2659,-0.2603,-0.2057,-0.2059,-0.2009,-0.2319,-0.2246,-0.2251,-0.2255,-0.2258,-0.226,-0.2169,-0.2194,-0.2289,-0.2368,-0.2459,-0.2504,-0.2472,-0.2589,-0.2617,-0.2577,-0.2752,-0.2643,-0.2493,-0.2384,-0.2384,-0.211,-0.2343,-0.1951,-0.2038,-0.2123,-0.1998,-0.2237,-0.2132,-0.2136,-0.214,-0.2143,-0.2146,0,-0.2048,-0.2099,-0.2184,-0.2242,-0.2216,-0.2321,-0.2386,-0.2301,-0.225,-0.2272,-0.2238,-0.194,-0.1747,-0.1694,-0.1466,-0.1409,-0.1401,-0.143,-0.1349,-0.1358,-0.154,-0.142,-0.1092,-0.1092,-0.1093,-0.1093,-0.1093,-0.1093,-0.1999,-0.2013,-0.2046,-0.1958,-0.1963,-0.1827,-0.1792,-0.1761,-0.1714,-0.1521,-0.1315,-0.1219,-0.1202,-0.1122,-0.0983,-0.0959,-0.0996,-0.0972,-0.1203,-0.1195,-0.1247,-0.1296,-0.1183,-0.0812,-0.0812,-0.0803,-0.0803,-0.0803]},{"header":{"parameterUnit":"m.s-1","parameterCategory":2,"la1":30.2991,"la2":30.254,"lo1":-89.0895,"lo2":-89.0444,"dy":0.0017,"dx":0.0017,"nx":28,"ny":28,"refTime":"2023-09-26T09:00:00:Z","depth":"0","parameterNumber":3,"parameterNumberName":"V-component_of_CURRENTS"},"data":[0,0,0,0,0,0,0,0,0,0,0,0,0,0,0,0,0,0,0,0,0,0,0,0,0,0,0,0,0,0,0,0,0,0,0,0,0,0,0,0,0,0,0,0,0,0,0,0,0,0,0,0,0,0,0,0,0,0,-0.0426,-0.0424,0,-0.0276,-0.0274,-0.0272,-0.0176,-0.0176,-0.0176,-0.0175,0.0011,0.0015,0.002,0,0,0,0,0,0,0,0,0,0,0,0,0,-0.0573,-0.0571,-0.0426,-0.0424,-0.0422,-0.0277,-0.0274,-0.0272,-0.0176,-0.0176,-0.0176,-0.0175,0.0009,0.0015,0.002,0,0,0,0,0,0,0,0,0,0,0,0,0,-0.0472,-0.057,-0.0426,-0.0359,-0.0352,-0.0277,-0.0274,-0.0271,-0.0176,-0.0176,-0.0175,-0.0175,0.0007,0.0014,0.0021,0.0054,0,0,0.0042,0.0045,0,0,0,0,0,0,0,0,-0.0478,-0.0467,-0.0371,-0.0364,-0.0355,-0.0247,-0.0258,-0.0162,-0.0177,-0.024,-0.0175,-0.0175,-0.0074,-0.006,-0.003,0.0063,0.0071,0.0043,0.0047,0.005,0.0052,0,0,0,0,0,0,0,-0.0485,-0.0472,-0.0364,-0.0369,-0.036,-0.0318,-0.0303,-0.0239,-0.0159,-0.0235,-0.0228,-0.0216,-0.0069,-0.0037,-0.0025,0.0073,0.0043,0.0049,0.0053,0.0056,0.02,0.0199,0,0,0,0,0,0,-0.0512,-0.0479,-0.0368,-0.0359,-0.042,-0.0316,-0.03,-0.028,-0.016,-0.0143,-0.0216,-0.0212,-0.0049,-0.0033,-0.0018,0.0015,0.005,0.0057,0.0061,0.02,0.02,0.0199,0,0,0,0,0,0,-0.0516,-0.0504,-0.0375,-0.0419,-0.04,-0.0315,-0.0293,-0.0277,-0.0246,-0.0147,-0.0128,-0.0202,-0.0048,-0.0028,0.0034,0.0023,0.006,0.0066,0.02,0.02,0.0199,0.0089,0,0,0,0,0,0,-0.0521,-0.0506,-0.0499,-0.042,-0.0398,-0.0341,-0.0293,-0.0275,-0.024,-0.0233,-0.0128,-0.011,-0.0046,0.0023,0.0041,0.0034,0.0071,0.0201,0.02,0.02,0.0093,0.0085,0.0078,0,0,0,0,0,-0.0526,-0.0518,-0.0499,-0.0486,-0.0392,-0.0342,-0.0327,-0.0263,-0.0241,-0.0231,-0.0162,-0.0114,0.0031,0.0029,0.005,0.0044,0.0201,0.02,0.02,0.0097,0.0087,0.0078,0,0,0,0,0,0,-0.0568,-0.0506,-0.0483,-0.0453,-0.041,-0.0327,-0.031,-0.0272,-0.0209,-0.0202,-0.0111,-0.0088,-0.0039,0.0017,0.0012,0.0083,0.0122,0.0125,0.0036,0.0028,0.002,-0.0017,0.0077,0,0,0,0,0,-0.058,-0.0561,-0.0498,-0.0475,-0.046,-0.039,-0.0362,-0.0323,-0.0259,-0.023,-0.016,-0.0087,-0.0025,0.0011,0.0076,0.0117,0.012,0.0126,0.0118,0.0111,0.0095,0.0092,0.0081,0.0197,0.0197,0.0197,0,0,-0.0587,-0.0553,-0.0539,-0.0485,-0.0445,-0.0431,-0.0371,-0.0338,-0.032,-0.0221,-0.0175,-0.0109,-0.002,0.0026,0.0053,0.0071,0.0073,0.011,0.0103,0.0091,0.0089,0.0078,0.0068,0.0196,0.0196,0.0196,0,0,-0.0608,-0.057,-0.0569,-0.0545,-0.0502,-0.046,-0.046,-0.039,-0.0352,-0.0304,-0.0232,-0.0181,-0.0078,-0.0024,0.0018,0.0006,0.0032,0.003,-0.0036,-0.0039,-0.005,-0.0059,-0.0108,-0.012,0.0026,0.0026,0.0026,0,-0.0624,-0.0613,-0.0562,-0.0565,-0.0552,-0.0485,-0.0491,-0.0444,-0.0362,-0.0344,-0.0306,-0.0187,-0.0105,-0.0063,-0.0059,-0.0013,-0.0028,-0.001,-0.0054,-0.0062,-0.0069,-0.0117,-0.0129,0.002,0.0021,0.0022,0.0022,0,-0.0647,-0.0647,-0.0648,-0.0633,-0.0611,-0.0605,-0.0549,-0.0523,-0.0475,-0.0432,-0.0383,-0.0282,-0.0217,-0.0181,-0.0114,-0.0121,-0.0123,-0.0067,-0.004,-0.0088,-0.0135,-0.0146,0.0013,0.0015,0.0016,0.0018,0,0,-0.0659,-0.0666,-0.0668,-0.0683,-0.065,-0.0634,-0.0619,-0.0587,-0.0587,-0.0514,-0.0518,-0.0399,-0.036,-0.031,-0.0231,-0.0223,-0.0281,-0.0173,-0.017,-0.0242,-0.0337,-0.0201,-0.02,-0.0238,-0.0239,-0.024,-0.0363,0,-0.0696,-0.0738,-0.0716,-0.0747,-0.0766,-0.0717,-0.0709,-0.0674,-0.0633,-0.0622,-0.0541,-0.0506,-0.0405,-0.0381,-0.0358,-0.0285,-0.0309,-0.0256,-0.0261,-0.0263,-0.0151,-0.0206,-0.009,-0.0176,-0.0374,-0.0376,-0.0377,0,-0.0722,-0.0754,-0.0803,-0.0822,-0.0823,-0.0827,-0.0816,-0.0799,-0.0771,-0.0743,-0.0712,-0.0651,-0.0613,-0.0527,-0.0478,-0.0452,-0.0416,-0.0374,-0.0376,-0.0216,-0.0144,-0.0148,-0.0187,-0.0025,-0.0393,-0.0392,-0.0391,0,-0.0768,-0.0803,-0.085,-0.0858,-0.0871,-0.0878,-0.0871,-0.0845,-0.0852,-0.0836,-0.086,-0.0792,-0.0776,-0.071,-0.059,-0.055,-0.0563,-0.0494,-0.0363,-0.0356,-0.0239,-0.0216,-0.013,-0.0509,-0.0509,-0.0508,-0.0508,0,-0.0815,-0.085,-0.0881,-0.0915,-0.0963,-0.0938,-0.098,-0.0961,-0.0971,-0.1019,-0.0934,-0.0962,-0.082,-0.0787,-0.0678,-0.055,-0.0636,-0.0399,-0.0371,-0.0273,-0.0253,-0.0085,-0.0036,-0.0513,-0.0512,-0.0511,-0.051,0,-0.0856,-0.088,-0.0942,-0.0982,-0.0995,-0.1028,-0.1066,-0.1104,-0.1093,-0.1164,-0.1174,-0.112,-0.1039,-0.0906,-0.0806,-0.0659,-0.0444,-0.0501,-0.041,-0.0364,-0.0011,0.0026,0.0076,0.0161,-0.0371,-0.0368,-0.0366,0,-0.0877,-0.0921,-0.1002,-0.105,-0.1073,-0.1122,-0.1168,-0.117,-0.1224,-0.1261,-0.1319,-0.1257,-0.1181,-0.0969,-0.0691,-0.0487,-0.0394,-0.0289,-0.0149,0.0013,0.0071,0.0073,0.014,-0.0082,-0.0078,-0.0074,-0.0071,0,-0.0931,-0.0965,-0.1033,-0.1128,-0.1194,-0.1266,-0.1335,-0.1395,-0.1419,-0.1462,-0.149,-0.1421,-0.1148,-0.079,-0.0472,-0.0344,-0.0121,-0.0201,-0.006,0.0288,0.0314,0.041,-0.0049,-0.0039,-0.0042,-0.0044,-0.0046,-0.0048,-0.0968,-0.1035,-0.1125,-0.1202,-0.1283,-0.1379,-0.1418,-0.1503,-0.1572,-0.1563,-0.1543,-0.1298,-0.0812,-0.028,-0.0157,0.0256,0.0147,0.0398,0.0409,0.0378,0.055,0.0163,0.0253,0.0251,0.025,0.0249,0.0248,0,-0.1015,-0.1091,-0.1181,-0.1282,-0.1344,-0.1374,-0.1497,-0.1515,-0.1572,-0.1465,-0.1383,-0.0722,-0.0252,0.0174,0.0706,0.0876,0.087,0.0917,0.0936,0.0963,0.0605,0.072,0.0951,0.095,0.095,0.095,0.095,0.095,-0.1046,-0.1153,-0.1201,-0.1296,-0.1337,-0.1386,-0.1428,-0.1477,-0.1387,-0.1086,-0.0652,-0.0287,0.0296,0.0906,0.1322,0.1341,0.1438,0.1405,0.1418,0.1197,0.1149,0.1103,0.1227,0.156,0.1561,0.1805,0.1807,0.1809]}],[{"header":{"parameterUnit":"m.s-1","parameterCategory":2,"la1":30.2991,"la2":30.254,"lo1":-89.0895,"lo2":-89.0444,"dy":0.0017,"dx":0.0017,"nx":28,"ny":28,"refTime":"2023-09-26T09:00:00:Z","depth":"2","parameterNumber":2,"parameterNumberName":"U-component_of_CURRENTS"},"data":[0,0,0,0,0,0,0,0,0,0,0,0,0,0,0,0,0,0,0,0,0,0,0,0,0,0,0,0,0,0,0,0,0,0,0,0,0,0,0,0,0,0,0,0,0,0,0,0,0,0,0,0,0,0,0,0,0,0,-0.2305,-0.2305,0,-0.2348,-0.2348,-0.2348,-0.2389,-0.239,-0.2391,-0.2391,-0.2392,-0.2391,-0.239,0,0,0,0,0,0,0,0,0,0,0,0,0,-0.2259,-0.2259,-0.2305,-0.2305,-0.2306,-0.2348,-0.2348,-0.2349,-0.2389,-0.239,-0.2391,-0.2392,-0.2392,-0.2391,-0.239,0,0,0,0,0,0,0,0,0,0,0,0,0,-0.2285,-0.2259,-0.2304,-0.2334,-0.2338,-0.2348,-0.2348,-0.2349,-0.2389,-0.239,-0.2391,-0.2392,-0.2392,-0.2391,-0.239,-0.2358,0,0,-0.2387,-0.2386,0,0,0,0,0,0,0,0,-0.2283,-0.2286,-0.2329,-0.2332,-0.2336,-0.2368,-0.2333,-0.2351,-0.2388,-0.2365,-0.2392,-0.2393,-0.2381,-0.2381,-0.2382,-0.2358,-0.2358,-0.2386,-0.2386,-0.2385,-0.2385,0,0,0,0,0,0,0,-0.2281,-0.2284,-0.2318,-0.233,-0.2334,-0.2347,-0.2351,-0.2336,-0.2362,-0.2367,-0.2371,-0.2382,-0.2382,-0.2383,-0.2382,-0.2358,-0.2386,-0.2385,-0.2385,-0.2384,-0.2305,-0.2303,0,0,0,0,0,0,-0.2282,-0.2282,-0.2317,-0.232,-0.2316,-0.2347,-0.2352,-0.2353,-0.2363,-0.2367,-0.2381,-0.2384,-0.2384,-0.2383,-0.2382,-0.2355,-0.2385,-0.2384,-0.2383,-0.2306,-0.2304,-0.2303,0,0,0,0,0,0,-0.228,-0.2284,-0.2315,-0.2306,-0.2311,-0.2346,-0.2348,-0.2353,-0.236,-0.2374,-0.2377,-0.2383,-0.2385,-0.2384,-0.237,-0.2355,-0.2384,-0.2383,-0.2308,-0.2306,-0.2304,-0.2293,0,0,0,0,0,0,-0.2279,-0.2283,-0.2295,-0.2305,-0.2312,-0.2286,-0.2347,-0.2354,-0.2366,-0.237,-0.2376,-0.2378,-0.2386,-0.2372,-0.2369,-0.2354,-0.2382,-0.231,-0.2307,-0.2304,-0.2295,-0.2291,-0.2287,0,0,0,0,0,-0.2277,-0.226,-0.2295,-0.23,-0.2323,-0.2284,-0.2285,-0.2314,-0.2365,-0.2333,-0.2367,-0.2378,-0.2353,-0.237,-0.2367,-0.2351,-0.2311,-0.2308,-0.2304,-0.2297,-0.2292,-0.2287,0,0,0,0,0,0,-0.2251,-0.2264,-0.2302,-0.2295,-0.2285,-0.2291,-0.2282,-0.2311,-0.2316,-0.2343,-0.2363,-0.2364,-0.2337,-0.2342,-0.236,-0.2317,-0.2331,-0.2327,-0.2327,-0.2322,-0.2318,-0.2327,-0.2381,0,0,0,0,0,-0.2254,-0.2235,-0.2255,-0.2243,-0.2244,-0.2271,-0.2271,-0.2292,-0.2298,-0.2304,-0.232,-0.2333,-0.2319,-0.2322,-0.2301,-0.2286,-0.2319,-0.2271,-0.2267,-0.2263,-0.2266,-0.2292,-0.2292,-0.2292,-0.2292,-0.2292,0,0,-0.2247,-0.2246,-0.2244,-0.2235,-0.2242,-0.2238,-0.227,-0.226,-0.2267,-0.2301,-0.2313,-0.231,-0.2306,-0.2284,-0.2274,-0.2293,-0.2284,-0.2259,-0.2257,-0.2262,-0.2289,-0.2289,-0.2289,-0.229,-0.2291,-0.2291,0,0,-0.2192,-0.2217,-0.2186,-0.2184,-0.219,-0.2205,-0.2202,-0.2218,-0.2231,-0.2237,-0.2263,-0.2251,-0.2249,-0.2239,-0.2236,-0.2193,-0.2249,-0.2192,-0.2198,-0.2222,-0.2223,-0.2224,-0.2294,-0.2302,-0.2206,-0.2206,-0.2206,0,-0.2188,-0.2175,-0.2166,-0.2147,-0.2165,-0.2191,-0.2189,-0.2189,-0.2205,-0.2207,-0.2235,-0.2234,-0.2223,-0.2202,-0.2195,-0.2183,-0.2237,-0.2222,-0.222,-0.2222,-0.2224,-0.2295,-0.2303,-0.2205,-0.2205,-0.2205,-0.2206,0,-0.2129,-0.2135,-0.2109,-0.2111,-0.2108,-0.2102,-0.2123,-0.2115,-0.2158,-0.2176,-0.2165,-0.2168,-0.2176,-0.2159,-0.2173,-0.2168,-0.2217,-0.2204,-0.2242,-0.2224,-0.2299,-0.2308,-0.2204,-0.2204,-0.2205,-0.2205,0,0,-0.2085,-0.2076,-0.2076,-0.2082,-0.211,-0.2086,-0.209,-0.2087,-0.2085,-0.2112,-0.2125,-0.2101,-0.2133,-0.2131,-0.2143,-0.2164,-0.2221,-0.2207,-0.2209,-0.2294,-0.2335,-0.2126,-0.2117,-0.223,-0.2231,-0.2232,-0.2395,0,-0.2058,-0.2025,-0.2037,-0.2026,-0.2026,-0.2055,-0.2044,-0.2045,-0.2061,-0.2067,-0.2087,-0.2098,-0.2117,-0.214,-0.2163,-0.2211,-0.2241,-0.2181,-0.2324,-0.2329,-0.2158,-0.2116,-0.1907,-0.2012,-0.2404,-0.2406,-0.2407,0,-0.2021,-0.2005,-0.1996,-0.1994,-0.1996,-0.2,-0.1997,-0.199,-0.1997,-0.202,-0.2056,-0.2087,-0.2144,-0.2148,-0.2258,-0.224,-0.2285,-0.2315,-0.2322,-0.2132,-0.2132,-0.2085,-0.2014,-0.2423,-0.2422,-0.2421,-0.2419,0,-0.1991,-0.1981,-0.1974,-0.1982,-0.1977,-0.1977,-0.1985,-0.198,-0.1964,-0.2013,-0.2053,-0.2106,-0.219,-0.224,-0.2336,-0.2319,-0.2457,-0.2433,-0.2285,-0.2276,-0.212,-0.209,-0.2471,-0.2471,-0.247,-0.247,-0.2469,0,-0.1964,-0.1953,-0.196,-0.1952,-0.1922,-0.1955,-0.1908,-0.193,-0.1956,-0.1962,-0.2053,-0.2084,-0.2222,-0.2316,-0.2362,-0.2369,-0.2493,-0.2273,-0.2277,-0.2107,-0.2076,-0.2441,-0.2435,-0.2476,-0.2475,-0.2474,-0.2472,0,-0.1909,-0.1929,-0.1899,-0.1903,-0.1901,-0.188,-0.1864,-0.1832,-0.1913,-0.1947,-0.199,-0.212,-0.2238,-0.2351,-0.2459,-0.2399,-0.2413,-0.2377,-0.2185,-0.2155,-0.2219,-0.2212,-0.2211,-0.2205,-0.2199,-0.2194,-0.219,0,-0.1871,-0.1852,-0.1837,-0.1819,-0.1823,-0.1787,-0.1758,-0.1798,-0.1796,-0.1939,-0.1977,-0.2119,-0.2151,-0.2244,-0.2176,-0.2195,-0.2332,-0.1983,-0.1823,-0.2175,-0.2182,-0.2183,-0.2182,-0.1675,-0.1668,-0.1661,-0.1656,0,-0.1791,-0.1793,-0.1779,-0.1729,-0.1711,-0.1647,-0.1655,-0.1644,-0.1729,-0.179,-0.1922,-0.1961,-0.2015,-0.187,-0.1837,-0.1811,-0.1946,-0.1837,-0.2296,-0.1711,-0.1663,-0.1672,-0.1691,-0.1599,-0.1605,-0.1609,-0.1612,-0.1614,-0.1732,-0.1699,-0.1687,-0.1616,-0.1605,-0.1563,-0.1488,-0.1525,-0.1522,-0.1597,-0.172,-0.1691,-0.1688,-0.1435,-0.1414,-0.1391,-0.1502,-0.1431,-0.1456,-0.1486,-0.1331,-0.1268,-0.1108,-0.1111,-0.1113,-0.1115,-0.1117,0,-0.1623,-0.1602,-0.1564,-0.1501,-0.1448,-0.1465,-0.1437,-0.1362,-0.1342,-0.1362,-0.1396,-0.1214,-0.1026,-0.1085,-0.0899,-0.084,-0.0902,-0.0848,-0.093,-0.0982,-0.103,-0.0858,-0.0508,-0.0507,-0.0506,-0.0505,0,0,-0.1582,-0.151,-0.1472,-0.1351,-0.1316,-0.1215,-0.1176,-0.1127,-0.1082,-0.1005,-0.0911,-0.0876,-0.0919,-0.066,-0.0633,-0.054,-0.0771,-0.0517,-0.099,-0.1132,-0.1179,-0.133,-0.1115,0,0,0,0,0]},{"header":{"parameterUnit":"m.s-1","parameterCategory":2,"la1":30.2991,"la2":30.254,"lo1":-89.0895,"lo2":-89.0444,"dy":0.0017,"dx":0.0017,"nx":28,"ny":28,"refTime":"2023-09-26T09:00:00:Z","depth":"2","parameterNumber":3,"parameterNumberName":"V-component_of_CURRENTS"},"data":[0,0,0,0,0,0,0,0,0,0,0,0,0,0,0,0,0,0,0,0,0,0,0,0,0,0,0,0,0,0,0,0,0,0,0,0,0,0,0,0,0,0,0,0,0,0,0,0,0,0,0,0,0,0,0,0,0,0,-0.0175,-0.0174,0,-0.0083,-0.0082,-0.008,-0.0035,-0.0035,-0.0035,-0.0035,0.0122,0.0126,0.013,0,0,0,0,0,0,0,0,0,0,0,0,0,-0.0258,-0.0257,-0.0175,-0.0174,-0.0173,-0.0083,-0.0081,-0.008,-0.0035,-0.0035,-0.0035,-0.0035,0.0121,0.0126,0.0131,0,0,0,0,0,0,0,0,0,0,0,0,0,-0.0199,-0.0256,-0.0176,-0.014,-0.0136,-0.0083,-0.0081,-0.008,-0.0035,-0.0035,-0.0035,-0.0035,0.0119,0.0125,0.0131,0.0172,0,0,0.0151,0.0153,0,0,0,0,0,0,0,0,-0.0202,-0.0196,-0.0146,-0.0142,-0.0138,-0.0071,-0.0053,0.0007,-0.0035,-0.0072,-0.0035,-0.0035,0.0063,0.0074,0.0091,0.0179,0.0186,0.0151,0.0155,0.0158,0.0159,0,0,0,0,0,0,0,-0.0207,-0.0199,-0.0138,-0.0145,-0.014,-0.011,-0.0102,-0.0041,-0.0004,-0.0069,-0.0066,-0.0056,0.0066,0.0085,0.0096,0.0188,0.0151,0.0157,0.016,0.0163,0.0331,0.0332,0,0,0,0,0,0,-0.0222,-0.0203,-0.0141,-0.0135,-0.0171,-0.0108,-0.0099,-0.0092,-0.0006,0.0007,-0.0056,-0.0054,0.0074,0.0088,0.0101,0.0201,0.0158,0.0164,0.0167,0.033,0.0331,0.0332,0,0,0,0,0,0,-0.0224,-0.0217,-0.0145,-0.0168,-0.0156,-0.0107,-0.0098,-0.009,-0.0072,0.0003,0.0017,-0.0048,0.0075,0.0093,0.0152,0.0206,0.0166,0.0172,0.033,0.0331,0.0332,0.037,0,0,0,0,0,0,-0.0227,-0.0218,-0.0226,-0.0169,-0.0156,-0.0105,-0.0098,-0.0088,-0.0066,-0.0063,0.0016,0.003,0.0076,0.0142,0.0158,0.0214,0.0177,0.0329,0.033,0.0331,0.0368,0.0373,0.0376,0,0,0,0,0,-0.023,-0.023,-0.0227,-0.0219,-0.0165,-0.0104,-0.0094,-0.0059,-0.0066,-0.0047,-0.0007,0.0027,0.0162,0.0148,0.0167,0.0225,0.0328,0.033,0.0331,0.0367,0.0372,0.0376,0,0,0,0,0,0,-0.0272,-0.0224,-0.0219,-0.0207,-0.0159,-0.0097,-0.0085,-0.0064,-0.0019,-0.0027,0.0037,0.0056,0.0129,0.0158,0.014,0.0271,0.0251,0.0256,0.0272,0.0277,0.0281,0.0262,0.0182,0,0,0,0,0,-0.0286,-0.0271,-0.0218,-0.0208,-0.0191,-0.0144,-0.0122,-0.0096,-0.0047,-0.0029,0.0026,0.0081,0.0151,0.0194,0.0249,0.0323,0.0325,0.0368,0.0372,0.0376,0.037,0.0412,0.0419,0.0337,0.0337,0.0337,0,0,-0.0302,-0.0273,-0.0267,-0.0216,-0.0185,-0.0134,-0.013,-0.0097,-0.0043,-0.0017,0.0056,0.0094,0.0168,0.0252,0.0289,0.0286,0.0398,0.0378,0.0381,0.0373,0.0414,0.0422,0.0429,0.0338,0.0338,0.0338,0,0,-0.0309,-0.0299,-0.0286,-0.0238,-0.0191,-0.0146,-0.0138,-0.0078,-0.0045,0.0022,0.0059,0.0121,0.0217,0.0293,0.0343,0.0398,0.041,0.0412,0.0438,0.048,0.0487,0.0493,0.0499,0.0505,0.0425,0.0426,0.0426,0,-0.0328,-0.0303,-0.0271,-0.023,-0.0189,-0.0149,-0.0106,-0.0052,0.0023,0.0041,0.0047,0.0174,0.0248,0.0362,0.0391,0.0416,0.041,0.0421,0.0486,0.0493,0.0498,0.0502,0.0509,0.0428,0.0427,0.0427,0.0427,0,-0.0311,-0.0287,-0.0272,-0.0201,-0.0147,-0.0109,-0.0026,0.0008,0.0039,0.0085,0.0163,0.0249,0.0318,0.037,0.0412,0.0501,0.0472,0.0479,0.0475,0.0509,0.0511,0.0517,0.043,0.043,0.0429,0.0429,0,0,-0.0357,-0.0278,-0.0273,-0.024,-0.0133,-0.0089,-0.0007,0.0068,0.0081,0.0168,0.0203,0.0355,0.0357,0.0411,0.0471,0.053,0.0592,0.0523,0.0524,0.0529,0.0644,0.0656,0.0664,0.0601,0.0603,0.0604,0.0625,0,-0.0355,-0.0297,-0.0241,-0.0164,-0.0123,-0.0051,0.0016,0.0087,0.0133,0.0173,0.0269,0.0324,0.0392,0.041,0.049,0.0559,0.061,0.0583,0.0608,0.0608,0.0618,0.0674,0.061,0.0626,0.0631,0.0632,0.0633,0,-0.0357,-0.0311,-0.0256,-0.0168,-0.0148,-0.0092,-0.002,0.0047,0.012,0.0141,0.021,0.0258,0.0387,0.0412,0.0565,0.0534,0.059,0.064,0.0642,0.0643,0.0634,0.0595,0.0638,0.0643,0.0642,0.0642,0.0641,0,-0.0415,-0.0321,-0.0287,-0.0246,-0.0139,-0.0116,-0.0058,0.0015,0.0036,0.0108,0.0105,0.024,0.0298,0.0404,0.0532,0.0539,0.0654,0.0679,0.0738,0.0737,0.0685,0.0678,0.0763,0.0763,0.0763,0.0763,0.0763,0,-0.0434,-0.0401,-0.0323,-0.03,-0.0264,-0.0168,-0.0155,-0.0097,-0.0054,-0.0048,0.0076,0.0107,0.0295,0.0386,0.0499,0.0638,0.0634,0.0748,0.0758,0.0695,0.0689,0.0703,0.0695,0.0764,0.0764,0.0763,0.0763,0,-0.0501,-0.0453,-0.0407,-0.0321,-0.0296,-0.0271,-0.0214,-0.0224,-0.0166,-0.0157,-0.0139,0.001,0.0149,0.0307,0.0477,0.0593,0.0716,0.0752,0.0652,0.0652,0.0775,0.0769,0.0841,0.0842,0.0843,0.0844,0.0844,0,-0.0526,-0.0518,-0.0447,-0.0435,-0.04,-0.0361,-0.0358,-0.0289,-0.0297,-0.0219,-0.022,-0.0084,0.0016,0.0279,0.0487,0.0672,0.0702,0.0731,0.0773,0.0788,0.079,0.0783,0.0776,0.0704,0.0703,0.0703,0.0702,0,-0.057,-0.0567,-0.0545,-0.0524,-0.0512,-0.0499,-0.0477,-0.0499,-0.044,-0.0415,-0.0378,-0.0295,-0.0028,0.0206,0.0487,0.0591,0.0709,0.0729,0.0771,0.0704,0.0664,0.0663,0.066,0.0697,0.0698,0.0698,0.0699,0.0699,-0.0619,-0.0632,-0.0629,-0.0606,-0.0606,-0.0631,-0.064,-0.0627,-0.0627,-0.0543,-0.0474,-0.0273,-0.0063,0.0384,0.0502,0.0658,0.0702,0.0763,0.0762,0.0762,0.0753,0.0718,0.0757,0.0758,0.0759,0.076,0.076,0,-0.0666,-0.0692,-0.0697,-0.0693,-0.0726,-0.0696,-0.0719,-0.0719,-0.0718,-0.0545,-0.0458,-0.02,0.0094,0.0326,0.0558,0.0685,0.0658,0.0701,0.0646,0.065,0.0654,0.0637,0.0612,0.0612,0.0612,0.0612,0,0,-0.07,-0.0744,-0.075,-0.0801,-0.0804,-0.0848,-0.0866,-0.0841,-0.0716,-0.0555,-0.0333,-0.0049,0.0198,0.0343,0.0453,0.0549,0.0567,0.0543,0.0649,0.0571,0.0573,0.0675,0.0654,0,0,0,0,0]}],[{"header":{"parameterUnit":"m.s-1","parameterCategory":2,"la1":30.2991,"la2":30.254,"lo1":-89.0895,"lo2":-89.0444,"dy":0.0017,"dx":0.0017,"nx":28,"ny":28,"refTime":"2023-09-26T09:00:00:Z","depth":"4","parameterNumber":2,"parameterNumberName":"U-component_of_CURRENTS"},"data":[0,0,0,0,0,0,0,0,0,0,0,0,0,0,0,0,0,0,0,0,0,0,0,0,0,0,0,0,0,0,0,0,0,0,0,0,0,0,0,0,0,0,0,0,0,0,0,0,0,0,0,0,0,0,0,0,0,0,-0.0587,-0.0587,0,-0.0644,-0.0645,-0.0646,-0.0692,-0.0692,-0.0692,-0.0692,-0.0798,-0.08,-0.0803,0,0,0,0,0,0,0,0,0,0,0,0,0,-0.0545,-0.0546,-0.0587,-0.0587,-0.0587,-0.0643,-0.0645,-0.0646,-0.0692,-0.0692,-0.0692,-0.0693,-0.0797,-0.08,-0.0803,0,0,0,0,0,0,0,0,0,0,0,0,0,-0.0583,-0.0546,-0.0586,-0.0614,-0.0617,-0.0643,-0.0645,-0.0646,-0.0692,-0.0692,-0.0692,-0.0693,-0.0796,-0.08,-0.0804,-0.0826,0,0,-0.0816,-0.0818,0,0,0,0,0,0,0,0,-0.058,-0.0585,-0.061,-0.0612,-0.0615,-0.0657,-0.0668,-0.0707,-0.0692,-0.0668,-0.0692,-0.0693,-0.0753,-0.076,-0.0776,-0.0831,-0.0835,-0.0817,-0.0819,-0.0821,-0.0822,0,0,0,0,0,0,0,-0.0578,-0.0582,-0.0613,-0.061,-0.0613,-0.0633,-0.0638,-0.0676,-0.0713,-0.067,-0.0673,-0.0672,-0.0755,-0.0772,-0.0779,-0.0837,-0.0816,-0.082,-0.0823,-0.0824,-0.0949,-0.095,0,0,0,0,0,0,-0.0561,-0.058,-0.0611,-0.0615,-0.0593,-0.0633,-0.0639,-0.0647,-0.0711,-0.072,-0.0672,-0.0674,-0.0765,-0.0774,-0.0782,-0.0843,-0.0821,-0.0825,-0.0827,-0.0948,-0.0949,-0.095,0,0,0,0,0,0,-0.056,-0.0563,-0.0609,-0.0595,-0.0601,-0.0633,-0.0641,-0.0648,-0.0692,-0.0712,-0.0722,-0.0711,-0.0765,-0.0777,-0.0831,-0.0846,-0.0826,-0.083,-0.0947,-0.0948,-0.095,-0.0944,0,0,0,0,0,0,-0.0559,-0.0563,-0.0575,-0.0594,-0.0601,-0.0635,-0.0641,-0.0649,-0.0688,-0.0692,-0.0748,-0.0756,-0.0766,-0.0825,-0.0835,-0.0851,-0.0833,-0.0946,-0.0948,-0.0949,-0.0943,-0.0945,-0.0946,0,0,0,0,0,-0.0557,-0.0568,-0.0575,-0.0579,-0.0613,-0.0635,-0.0642,-0.0667,-0.069,-0.0709,-0.0746,-0.0756,-0.0842,-0.0829,-0.0841,-0.0858,-0.0945,-0.0947,-0.0949,-0.0942,-0.0944,-0.0946,0,0,0,0,0,0,-0.0545,-0.0574,-0.0582,-0.0599,-0.0618,-0.0641,-0.0658,-0.0685,-0.0732,-0.0746,-0.0774,-0.0785,-0.0827,-0.0853,-0.0838,-0.0899,-0.0894,-0.0898,-0.0884,-0.0887,-0.0888,-0.0898,-0.0837,0,0,0,0,0,-0.0548,-0.0573,-0.0591,-0.0605,-0.0614,-0.0645,-0.0663,-0.0686,-0.072,-0.0743,-0.0769,-0.0807,-0.0841,-0.0873,-0.0893,-0.0945,-0.0953,-0.0963,-0.0964,-0.0966,-0.0982,-0.0986,-0.0989,-0.0957,-0.0957,-0.0957,0,0,-0.0547,-0.0564,-0.0578,-0.0606,-0.0622,-0.0647,-0.0659,-0.0692,-0.073,-0.0747,-0.0799,-0.081,-0.0852,-0.0889,-0.0913,-0.0919,-0.0981,-0.0968,-0.0969,-0.0985,-0.0988,-0.0991,-0.0994,-0.0958,-0.0958,-0.0958,0,0,-0.055,-0.057,-0.0592,-0.0613,-0.0644,-0.0663,-0.068,-0.0711,-0.0744,-0.0799,-0.0805,-0.0828,-0.0896,-0.0906,-0.0931,-0.0964,-0.0976,-0.0977,-0.1012,-0.1015,-0.1018,-0.102,-0.1035,-0.1038,-0.0993,-0.0993,-0.0993,0,-0.0543,-0.0571,-0.06,-0.0623,-0.0643,-0.0674,-0.0703,-0.0742,-0.0788,-0.082,-0.082,-0.0887,-0.0904,-0.0956,-0.0959,-0.0967,-0.098,-0.0997,-0.1016,-0.1018,-0.1021,-0.1035,-0.1039,-0.0993,-0.0993,-0.0993,-0.0993,0,-0.0561,-0.0588,-0.0599,-0.0642,-0.0676,-0.0698,-0.0748,-0.0789,-0.083,-0.0862,-0.0915,-0.0925,-0.0967,-0.0968,-0.0983,-0.1011,-0.1016,-0.1001,-0.1005,-0.1023,-0.1038,-0.1042,-0.0993,-0.0993,-0.0993,-0.0993,0,0,-0.0529,-0.0596,-0.0605,-0.0632,-0.0688,-0.0719,-0.0787,-0.0849,-0.0907,-0.0936,-0.0994,-0.1022,-0.1017,-0.1044,-0.1041,-0.105,-0.106,-0.1043,-0.1044,-0.1051,-0.1085,-0.1015,-0.1013,-0.1049,-0.1049,-0.105,-0.1088,0,-0.0527,-0.057,-0.0619,-0.0675,-0.0694,-0.0761,-0.0828,-0.0901,-0.0954,-0.1008,-0.1034,-0.1072,-0.1053,-0.1066,-0.1071,-0.106,-0.1073,-0.1053,-0.1075,-0.1076,-0.1004,-0.1015,-0.1052,-0.1091,-0.1092,-0.1093,-0.1093,0,-0.0524,-0.0556,-0.0603,-0.0697,-0.0719,-0.0765,-0.0877,-0.0948,-0.104,-0.1082,-0.1119,-0.1132,-0.1154,-0.1123,-0.1134,-0.1127,-0.1114,-0.1102,-0.1103,-0.1046,-0.1014,-0.1072,-0.1101,-0.11,-0.11,-0.1099,-0.1099,0,-0.0479,-0.0551,-0.0591,-0.0616,-0.0723,-0.0777,-0.0849,-0.0959,-0.1035,-0.1113,-0.115,-0.1184,-0.1194,-0.119,-0.1164,-0.1158,-0.1167,-0.115,-0.1081,-0.1077,-0.1131,-0.1128,-0.1158,-0.1158,-0.1158,-0.1158,-0.1157,0,-0.0444,-0.0482,-0.057,-0.0593,-0.0667,-0.0762,-0.0867,-0.0941,-0.1052,-0.1128,-0.1171,-0.12,-0.1209,-0.1213,-0.1191,-0.1147,-0.1187,-0.1095,-0.108,-0.1129,-0.1125,-0.1134,-0.1131,-0.1159,-0.1159,-0.1158,-0.1158,0,-0.0379,-0.0438,-0.0489,-0.06,-0.0644,-0.0699,-0.0866,-0.0952,-0.1047,-0.1137,-0.1159,-0.1219,-0.1222,-0.1224,-0.1212,-0.1168,-0.1138,-0.1111,-0.1179,-0.1166,-0.1048,-0.1044,-0.1055,-0.1053,-0.1051,-0.1049,-0.1048,0,-0.0349,-0.0363,-0.0477,-0.0519,-0.0566,-0.0675,-0.0775,-0.0925,-0.1011,-0.1134,-0.1165,-0.1198,-0.1222,-0.1159,-0.1159,-0.1127,-0.1101,-0.1092,-0.106,-0.1052,-0.1037,-0.1036,-0.1035,-0.1045,-0.1044,-0.1044,-0.1044,0,-0.0283,-0.0326,-0.0363,-0.0445,-0.0537,-0.0675,-0.0808,-0.0862,-0.104,-0.1107,-0.1142,-0.1136,-0.1139,-0.1116,-0.1094,-0.1065,-0.1102,-0.1072,-0.1075,-0.1045,-0.104,-0.1027,-0.1028,-0.1037,-0.1038,-0.1039,-0.1039,0,-0.0234,-0.0237,-0.0297,-0.0368,-0.0498,-0.0655,-0.0737,-0.0853,-0.096,-0.1084,-0.1079,-0.1104,-0.1135,-0.1084,-0.1061,-0.1029,-0.1013,-0.0978,-0.0986,-0.0994,-0.0949,-0.0932,-0.089,0,0,0,0,0,-0.0191,-0.0201,-0.0237,-0.0359,-0.0494,-0.0598,-0.0768,-0.0859,-0.0995,-0.1,-0.1046,-0.1042,-0.1012,-0.1016,-0.0968,-0.1029,-0.1016,-0.0969,-0.0982,-0.1001,-0.1009,-0.0959,0,0,0,0,0,0,-0.017,-0.0188,-0.0202,-0.0345,-0.0445,-0.0636,-0.0758,-0.085,-0.0868,-0.0955,-0.0939,-0.0979,-0.0958,-0.1018,-0.0943,-0.0945,-0.0934,-0.0981,-0.0979,-0.0997,-0.1004,-0.101,-0.0961,0,0,0,0,0]},{"header":{"parameterUnit":"m.s-1","parameterCategory":2,"la1":30.2991,"la2":30.254,"lo1":-89.0895,"lo2":-89.0444,"dy":0.0017,"dx":0.0017,"nx":28,"ny":28,"refTime":"2023-09-26T09:00:00:Z","depth":"4","parameterNumber":3,"parameterNumberName":"V-component_of_CURRENTS"},"data":[0,0,0,0,0,0,0,0,0,0,0,0,0,0,0,0,0,0,0,0,0,0,0,0,0,0,0,0,0,0,0,0,0,0,0,0,0,0,0,0,0,0,0,0,0,0,0,0,0,0,0,0,0,0,0,0,0,0,-0.0345,-0.0345,0,-0.0355,-0.0355,-0.0355,-0.0369,-0.0369,-0.0369,-0.0369,-0.0337,-0.0336,-0.0335,0,0,0,0,0,0,0,0,0,0,0,0,0,-0.0291,-0.0292,-0.0345,-0.0345,-0.0345,-0.0355,-0.0355,-0.0355,-0.0369,-0.0369,-0.0369,-0.0369,-0.0337,-0.0336,-0.0335,0,0,0,0,0,0,0,0,0,0,0,0,0,-0.0312,-0.0293,-0.0345,-0.0351,-0.0351,-0.0354,-0.0355,-0.0355,-0.0369,-0.0369,-0.0369,-0.0369,-0.0337,-0.0336,-0.0335,-0.0328,0,0,-0.0331,-0.0331,0,0,0,0,0,0,0,0,-0.0311,-0.0314,-0.035,-0.035,-0.0351,-0.0358,-0.0324,-0.0343,-0.0369,-0.0365,-0.0369,-0.0368,-0.0338,-0.0337,-0.0343,-0.0327,-0.0326,-0.0331,-0.033,-0.033,-0.0329,0,0,0,0,0,0,0,-0.0309,-0.0313,-0.0352,-0.035,-0.035,-0.0336,-0.034,-0.0328,-0.0353,-0.0365,-0.0366,-0.0362,-0.0338,-0.0345,-0.0343,-0.0325,-0.0331,-0.033,-0.0329,-0.0329,-0.0301,-0.0301,0,0,0,0,0,0,-0.0305,-0.0313,-0.0351,-0.0352,-0.0327,-0.0337,-0.0341,-0.0358,-0.0354,-0.0353,-0.0362,-0.0363,-0.0347,-0.0344,-0.0341,-0.0316,-0.033,-0.0329,-0.0328,-0.0301,-0.0301,-0.0301,0,0,0,0,0,0,-0.0304,-0.0309,-0.0351,-0.0329,-0.0333,-0.0338,-0.0357,-0.0358,-0.037,-0.0352,-0.035,-0.0373,-0.0347,-0.0343,-0.0334,-0.0315,-0.0328,-0.0327,-0.0301,-0.0301,-0.0301,-0.0276,0,0,0,0,0,0,-0.0303,-0.031,-0.0321,-0.0329,-0.0334,-0.036,-0.0356,-0.0358,-0.0366,-0.0367,-0.036,-0.0357,-0.0346,-0.0336,-0.0333,-0.0314,-0.0326,-0.0301,-0.0301,-0.0301,-0.0277,-0.0275,-0.0274,0,0,0,0,0,-0.0302,-0.0321,-0.0322,-0.0326,-0.035,-0.036,-0.0362,-0.0366,-0.0367,-0.0377,-0.0367,-0.0358,-0.0333,-0.0335,-0.0331,-0.0312,-0.0301,-0.0301,-0.0301,-0.0278,-0.0275,-0.0274,0,0,0,0,0,0,-0.0307,-0.0324,-0.0325,-0.0351,-0.0355,-0.0361,-0.0369,-0.0371,-0.0373,-0.0373,-0.0358,-0.0354,-0.0341,-0.0335,-0.0337,-0.0306,-0.0315,-0.0315,-0.0299,-0.0297,-0.0295,-0.0261,-0.0325,0,0,0,0,0,-0.0312,-0.0333,-0.0339,-0.0359,-0.0362,-0.0366,-0.0371,-0.0374,-0.0374,-0.0377,-0.037,-0.0357,-0.0338,-0.0326,-0.0319,-0.0299,-0.0262,-0.0286,-0.0284,-0.0283,-0.0254,-0.0194,-0.0183,-0.0301,-0.0301,-0.0301,0,0,-0.0321,-0.0331,-0.0344,-0.0361,-0.0366,-0.037,-0.0371,-0.0383,-0.0374,-0.037,-0.0364,-0.0357,-0.0335,-0.0315,-0.0307,-0.0305,-0.0233,-0.0283,-0.0281,-0.0252,-0.0193,-0.0181,-0.017,-0.0301,-0.0301,-0.0301,0,0,-0.0341,-0.0358,-0.0375,-0.0379,-0.0383,-0.0382,-0.0386,-0.0394,-0.0386,-0.0381,-0.0368,-0.0339,-0.0337,-0.0295,-0.0276,-0.0259,-0.0234,-0.0276,-0.0226,-0.017,-0.0158,-0.0148,-0.0091,-0.0075,-0.0266,-0.0266,-0.0266,0,-0.0344,-0.0373,-0.038,-0.0388,-0.0388,-0.0387,-0.0394,-0.0383,-0.0384,-0.0357,-0.038,-0.0327,-0.0313,-0.0242,-0.0236,-0.0249,-0.0222,-0.0233,-0.0164,-0.0153,-0.0143,-0.0086,-0.007,-0.0265,-0.0265,-0.0265,-0.0265,0,-0.0372,-0.0389,-0.0399,-0.0407,-0.0406,-0.0418,-0.0397,-0.0385,-0.0378,-0.0354,-0.0304,-0.0283,-0.024,-0.0237,-0.0228,-0.0146,-0.0153,-0.0175,-0.0162,-0.0129,-0.0073,-0.0055,-0.0263,-0.0264,-0.0264,-0.0264,0,0,-0.0389,-0.0414,-0.0417,-0.0418,-0.0418,-0.042,-0.0389,-0.035,-0.0313,-0.0297,-0.0244,-0.0191,-0.0172,-0.0147,-0.0132,-0.0072,0.002,-0.0091,-0.0089,-0.002,0.0146,0.0087,0.0099,0.0001,0.0005,0.0007,0.0156,0,-0.0405,-0.043,-0.0433,-0.044,-0.0446,-0.0421,-0.039,-0.0346,-0.0309,-0.0259,-0.019,-0.0152,-0.014,-0.0126,-0.0056,-0.0013,0.0066,-0.0018,0.0093,0.0098,0.0052,0.0118,0.0017,0.0169,0.0172,0.0175,0.0177,0,-0.0421,-0.0436,-0.0457,-0.0445,-0.0443,-0.0442,-0.0381,-0.035,-0.0255,-0.0224,-0.0147,-0.0116,-0.001,-0.0032,0.0125,0.0063,0.0124,0.0164,0.0169,0.0125,0.007,0.0128,0.0208,0.0206,0.0204,0.0202,0.02,0,-0.0426,-0.0443,-0.0463,-0.0465,-0.0453,-0.0438,-0.0417,-0.0336,-0.0297,-0.02,-0.0173,-0.0051,-0.0007,0.0096,0.0186,0.0155,0.0342,0.0304,0.0327,0.0323,0.0321,0.0308,0.0442,0.0442,0.0441,0.0441,0.044,0,-0.043,-0.0443,-0.0471,-0.0482,-0.0476,-0.0454,-0.0415,-0.0368,-0.0298,-0.0244,-0.016,-0.0102,0.0024,0.0132,0.0216,0.0329,0.0376,0.037,0.0369,0.0324,0.031,0.0333,0.0318,0.0446,0.0445,0.0444,0.0443,0,-0.0422,-0.0449,-0.0474,-0.0485,-0.0483,-0.0476,-0.0443,-0.0402,-0.034,-0.0273,-0.0249,-0.0123,0.0015,0.0146,0.0314,0.0354,0.0468,0.05,0.0466,0.0454,0.0408,0.0392,0.0547,0.0546,0.0546,0.0545,0.0545,0,-0.042,-0.0437,-0.0485,-0.0496,-0.0507,-0.0492,-0.0471,-0.0425,-0.039,-0.0283,-0.0256,-0.0116,-0.0022,0.0199,0.0316,0.0494,0.0498,0.0555,0.048,0.0441,0.0425,0.041,0.0396,0.0544,0.0544,0.0544,0.0544,0,-0.0408,-0.0443,-0.0464,-0.0497,-0.0507,-0.0504,-0.0485,-0.0474,-0.0405,-0.0356,-0.024,-0.0124,0.0031,0.019,0.0329,0.0447,0.0511,0.055,0.0551,0.048,0.044,0.042,0.0407,0.0542,0.0542,0.0542,0.0542,0,-0.0402,-0.0424,-0.0466,-0.0485,-0.0502,-0.0518,-0.0508,-0.0462,-0.0425,-0.0326,-0.0282,-0.0108,0.0005,0.0168,0.0297,0.0404,0.0408,0.0412,0.042,0.0423,0.0317,0.0243,0.0317,0,0,0,0,0,-0.0389,-0.0418,-0.044,-0.0483,-0.05,-0.0522,-0.0508,-0.0494,-0.0448,-0.0372,-0.0329,-0.0181,0.0014,0.0113,0.0211,0.0257,0.0406,0.0368,0.0409,0.0532,0.0534,0.0422,0,0,0,0,0,0,-0.0386,-0.0418,-0.0439,-0.0468,-0.0501,-0.0527,-0.0536,-0.0512,-0.0463,-0.0395,-0.0276,-0.0197,0.0007,-0.0039,0.0203,0.0237,0.0263,0.0475,0.0476,0.0531,0.0533,0.0534,0.042,0,0,0,0,0]}]]